TimeCDT,TemperatureF,Dew PointF,Humidity,Sea Level PressureIn,VisibilityMPH,Wind Direction,Wind SpeedMPH,Gust SpeedMPH,PrecipitationIn,Events,Conditions,WindDirDegrees,DateUTC
12:53 AM,46.0,39.9,79,30.18,10.0,Calm,Calm,-,N/A,,Clear,0,2011-10-02 05:53:00
1:53 AM,45.0,39.9,82,30.18,10.0,Calm,Calm,-,N/A,,Clear,0,2011-10-02 06:53:00
2:53 AM,45.0,39.9,82,30.17,10.0,Calm,Calm,-,N/A,,Clear,0,2011-10-02 07:53:00
3:53 AM,42.1,39.0,89,30.18,10.0,Calm,Calm,-,N/A,,Clear,0,2011-10-02 08:53:00
4:53 AM,42.8,39.2,87,30.18,10.0,Calm,Calm,-,N/A,,Clear,0,2011-10-02 09:53:00
5:53 AM,42.1,39.0,89,30.19,10.0,Calm,Calm,-,N/A,,Clear,0,2011-10-02 10:53:00
6:53 AM,42.1,39.0,89,30.22,10.0,NW,3.5,-,N/A,,Clear,320,2011-10-02 11:53:00
7:53 AM,46.0,39.9,79,30.24,10.0,NNW,4.6,-,N/A,,Clear,330,2011-10-02 12:53:00
8:53 AM,51.1,42.1,71,30.25,10.0,North,3.5,-,N/A,,Clear,360,2011-10-02 13:53:00
9:53 AM,55.0,42.1,62,30.25,10.0,NNE,8.1,-,N/A,,Partly Cloudy,30,2011-10-02 14:53:00
10:53 AM,57.0,39.0,51,30.25,10.0,Variable,3.5,16.1,N/A,,Partly Cloudy,0,2011-10-02 15:53:00
11:53 AM,60.1,37.9,44,30.23,10.0,Variable,5.8,-,N/A,,Clear,0,2011-10-02 16:53:00
12:53 PM,63.0,37.0,38,30.22,10.0,NNE,9.2,-,N/A,,Clear,30,2011-10-02 17:53:00
1:53 PM,64.9,34.0,32,30.19,10.0,North,9.2,-,N/A,,Clear,10,2011-10-02 18:53:00
2:53 PM,66.0,30.9,27,30.17,10.0,NW,9.2,-,N/A,,Clear,320,2011-10-02 19:53:00
3:53 PM,66.0,30.0,26,30.17,10.0,North,8.1,-,N/A,,Clear,350,2011-10-02 20:53:00
4:53 PM,64.9,30.0,27,30.16,10.0,NNW,6.9,-,N/A,,Clear,340,2011-10-02 21:53:00
5:53 PM,63.0,30.9,30,30.16,10.0,NW,10.4,-,N/A,,Partly Cloudy,320,2011-10-02 22:53:00
6:53 PM,59.0,33.1,38,30.17,10.0,NW,3.5,-,N/A,,Partly Cloudy,320,2011-10-02 23:53:00
7:53 PM,54.0,35.1,49,30.17,10.0,WNW,3.5,-,N/A,,Clear,300,2011-10-03 00:53:00
8:53 PM,53.1,36.0,52,30.19,10.0,NNW,4.6,-,N/A,,Clear,330,2011-10-03 01:53:00
9:53 PM,48.0,39.0,71,30.19,10.0,West,3.5,-,N/A,,Clear,280,2011-10-03 02:53:00
10:53 PM,46.9,41.0,80,30.19,10.0,Calm,Calm,-,N/A,,Clear,0,2011-10-03 03:53:00
11:53 PM,46.4,39.2,76,30.18,10.0,Calm,Calm,-,N/A,,Clear,0,2011-10-03 04:53:00